Year,Month,Day,Hour,Minute,Value (Times are PST for temperature in C)
2018,08,01,00,00,16.30
2018,08,01,00,01,16.30
2018,08,01,00,02,16.20
2018,08,01,00,03,16.20
2018,08,01,00,04,16.20
2018,08,01,00,05,16.20
2018,08,01,00,06,16.20
2018,08,01,00,07,16.10
2018,08,01,00,08,16.10
2018,08,01,00,09,16.10
2018,08,01,00,10,16.00
2018,08,01,00,11,16.00
2018,08,01,00,12,16.00
2018,08,01,00,13,15.90
2018,08,01,00,14,15.90
2018,08,01,00,15,15.90
2018,08,01,00,16,15.90
2018,08,01,00,17,15.80
2018,08,01,00,18,15.80
2018,08,01,00,19,15.80
2018,08,01,00,20,15.80
2018,08,01,00,21,15.80
2018,08,01,00,22,15.80
2018,08,01,00,23,15.70
2018,08,01,00,24,15.70
2018,08,01,00,25,15.70
2018,08,01,00,26,15.70
2018,08,01,00,27,15.70
2018,08,01,00,28,15.60
2018,08,01,00,29,15.60
2018,08,01,00,30,15.60
2018,08,01,00,31,15.60
2018,08,01,00,32,15.60
2018,08,01,00,33,15.50
2018,08,01,00,34,15.50
2018,08,01,00,35,15.50
2018,08,01,00,36,15.50
2018,08,01,00,37,15.40
2018,08,01,00,38,15.40
2018,08,01,00,39,15.40
2018,08,01,00,40,15.40
2018,08,01,00,41,15.40
2018,08,01,00,42,15.40
2018,08,01,00,43,15.30
2018,08,01,00,44,15.30
2018,08,01,00,45,15.30
2018,08,01,00,46,15.30
2018,08,01,00,47,15.30
2018,08,01,00,48,15.30
2018,08,01,00,49,15.30
2018,08,01,00,50,15.20
2018,08,01,00,51,15.20
2018,08,01,00,52,15.20
2018,08,01,00,53,15.20
2018,08,01,00,54,15.20
2018,08,01,00,55,15.20
2018,08,01,00,56,15.20
2018,08,01,00,57,15.20
2018,08,01,00,58,15.20
2018,08,01,00,59,15.20
2018,08,01,01,00,15.10
2018,08,01,01,01,15.10
2018,08,01,01,02,15.10
2018,08,01,01,03,15.10
2018,08,01,01,04,15.10
2018,08,01,01,05,15.10
2018,08,01,01,06,15.00
2018,08,01,01,07,15.00
2018,08,01,01,08,15.00
2018,08,01,01,09,15.00
2018,08,01,01,10,14.90
2018,08,01,01,11,14.90
2018,08,01,01,12,14.90
2018,08,01,01,13,14.90
2018,08,01,01,14,14.90
2018,08,01,01,15,14.90
2018,08,01,01,16,14.80
2018,08,01,01,17,14.80
2018,08,01,01,18,14.80
2018,08,01,01,19,14.80
2018,08,01,01,20,14.70
2018,08,01,01,21,14.70
2018,08,01,01,22,14.70
2018,08,01,01,23,14.70
2018,08,01,01,24,14.70
2018,08,01,01,25,14.60
2018,08,01,01,26,14.60
2018,08,01,01,27,14.60
2018,08,01,01,28,14.60
2018,08,01,01,29,14.60
2018,08,01,01,30,14.50
2018,08,01,01,31,14.50
2018,08,01,01,32,14.50
2018,08,01,01,33,14.50
2018,08,01,01,34,14.50
2018,08,01,01,35,14.40
2018,08,01,01,36,14.40
2018,08,01,01,37,14.40
2018,08,01,01,38,14.40
2018,08,01,01,39,14.40
2018,08,01,01,40,14.30
2018,08,01,01,41,14.30
2018,08,01,01,42,14.30
2018,08,01,01,43,14.30
2018,08,01,01,44,14.30
2018,08,01,01,45,14.30
2018,08,01,01,46,14.20
2018,08,01,01,47,14.20
2018,08,01,01,48,14.20
2018,08,01,01,49,14.20
2018,08,01,01,50,14.20
2018,08,01,01,51,14.10
2018,08,01,01,52,14.10
2018,08,01,01,53,14.10
2018,08,01,01,54,14.10
2018,08,01,01,55,14.10
2018,08,01,01,56,14.00
2018,08,01,01,57,14.00
2018,08,01,01,58,14.00
2018,08,01,01,59,14.00
2018,08,01,02,00,14.00
2018,08,01,02,01,13.90
2018,08,01,02,02,13.90
2018,08,01,02,03,13.90
2018,08,01,02,04,13.90
2018,08,01,02,05,13.90
2018,08,01,02,06,13.80
2018,08,01,02,07,13.80
2018,08,01,02,08,13.80
2018,08,01,02,09,13.80
2018,08,01,02,10,13.80
2018,08,01,02,11,13.80
2018,08,01,02,12,13.80
2018,08,01,02,13,13.80
2018,08,01,02,14,13.80
2018,08,01,02,15,13.80
2018,08,01,02,16,13.80
2018,08,01,02,17,13.70
2018,08,01,02,18,13.70
2018,08,01,02,19,13.70
2018,08,01,02,20,13.70
2018,08,01,02,21,13.70
2018,08,01,02,22,13.70
2018,08,01,02,23,13.70
2018,08,01,02,24,13.70
2018,08,01,02,25,13.60
2018,08,01,02,26,13.60
2018,08,01,02,27,13.60
2018,08,01,02,28,13.60
2018,08,01,02,29,13.60
2018,08,01,02,30,13.60
2018,08,01,02,31,13.60
2018,08,01,02,32,13.60
2018,08,01,02,33,13.50
2018,08,01,02,34,13.50
2018,08,01,02,35,13.50
2018,08,01,02,36,13.50
2018,08,01,02,37,13.50
2018,08,01,02,38,13.50
2018,08,01,02,39,13.50
2018,08,01,02,40,13.50
2018,08,01,02,41,13.50
2018,08,01,02,42,13.50
2018,08,01,02,43,13.40
2018,08,01,02,44,13.40
2018,08,01,02,45,13.40
2018,08,01,02,46,13.40
2018,08,01,02,47,13.40
2018,08,01,02,48,13.40
2018,08,01,02,49,13.40
2018,08,01,02,50,13.40
2018,08,01,02,51,13.40
2018,08,01,02,52,13.30
2018,08,01,02,53,13.30
2018,08,01,02,54,13.30
2018,08,01,02,55,13.30
2018,08,01,02,56,13.30
2018,08,01,02,57,13.30
2018,08,01,02,58,13.30
2018,08,01,02,59,13.30
2018,08,01,03,00,13.30
2018,08,01,03,01,13.30
2018,08,01,03,02,13.30
2018,08,01,03,03,13.30
2018,08,01,03,04,13.30
2018,08,01,03,05,13.20
2018,08,01,03,06,13.20
2018,08,01,03,07,13.20
2018,08,01,03,08,13.20
2018,08,01,03,09,13.20
2018,08,01,03,10,13.20
2018,08,01,03,11,13.20
2018,08,01,03,12,13.10
2018,08,01,03,13,13.10
2018,08,01,03,14,13.10
2018,08,01,03,15,13.10
2018,08,01,03,16,13.10
2018,08,01,03,17,13.10
2018,08,01,03,18,13.10
2018,08,01,03,19,13.10
2018,08,01,03,20,13.00
2018,08,01,03,21,13.00
2018,08,01,03,22,13.00
2018,08,01,03,23,13.00
2018,08,01,03,24,13.00
2018,08,01,03,25,12.90
2018,08,01,03,26,12.90
2018,08,01,03,27,12.90
2018,08,01,03,28,12.90
2018,08,01,03,29,12.90
2018,08,01,03,30,12.80
2018,08,01,03,31,12.80
2018,08,01,03,32,12.80
2018,08,01,03,33,12.80
2018,08,01,03,34,12.80
2018,08,01,03,35,12.80
2018,08,01,03,36,12.70
2018,08,01,03,37,12.70
2018,08,01,03,38,12.70
2018,08,01,03,39,12.70
2018,08,01,03,40,12.70
2018,08,01,03,41,12.70
2018,08,01,03,42,12.70
2018,08,01,03,43,12.60
2018,08,01,03,44,12.60
2018,08,01,03,45,12.60
2018,08,01,03,46,12.60
2018,08,01,03,47,12.60
2018,08,01,03,48,12.60
2018,08,01,03,49,12.60
2018,08,01,03,50,12.50
2018,08,01,03,51,12.50
2018,08,01,03,52,12.50
2018,08,01,03,53,12.50
2018,08,01,03,54,12.40
2018,08,01,03,55,12.40
2018,08,01,03,56,12.40
2018,08,01,03,57,12.40
2018,08,01,03,58,12.40
2018,08,01,03,59,12.40
2018,08,01,04,00,12.40
2018,08,01,04,01,12.40
2018,08,01,04,02,12.30
2018,08,01,04,03,12.30
2018,08,01,04,04,12.30
2018,08,01,04,05,12.30
2018,08,01,04,06,12.30
2018,08,01,04,07,12.30
2018,08,01,04,08,12.30
2018,08,01,04,09,12.20
2018,08,01,04,10,12.20
2018,08,01,04,11,12.20
2018,08,01,04,12,12.20
2018,08,01,04,13,12.20
2018,08,01,04,14,12.20
2018,08,01,04,15,12.20
2018,08,01,04,16,12.10
2018,08,01,04,17,12.10
2018,08,01,04,18,12.10
2018,08,01,04,19,12.10
2018,08,01,04,20,12.10
2018,08,01,04,21,12.10
2018,08,01,04,22,12.00
2018,08,01,04,23,12.00
2018,08,01,04,24,12.00
2018,08,01,04,25,12.00
2018,08,01,04,26,12.00
2018,08,01,04,27,12.00
2018,08,01,04,28,11.90
2018,08,01,04,29,11.90
2018,08,01,04,30,11.90
2018,08,01,04,31,11.90
2018,08,01,04,32,11.90
2018,08,01,04,33,11.90
2018,08,01,04,34,11.90
2018,08,01,04,35,11.80
2018,08,01,04,36,11.80
2018,08,01,04,37,11.80
2018,08,01,04,38,11.80
2018,08,01,04,39,11.80
2018,08,01,04,40,11.80
2018,08,01,04,41,11.80
2018,08,01,04,42,11.80
2018,08,01,04,43,11.80
2018,08,01,04,44,11.80
2018,08,01,04,45,11.80
2018,08,01,04,46,11.80
2018,08,01,04,47,11.80
2018,08,01,04,48,11.80
2018,08,01,04,49,11.80
2018,08,01,04,50,11.80
2018,08,01,04,51,11.80
2018,08,01,04,52,11.80
2018,08,01,04,53,11.70
2018,08,01,04,54,11.70
2018,08,01,04,55,11.70
2018,08,01,04,56,11.70
2018,08,01,04,57,11.70
2018,08,01,04,58,11.70
2018,08,01,04,59,11.70
2018,08,01,05,00,11.70
2018,08,01,05,01,11.70
2018,08,01,05,02,11.70
2018,08,01,05,03,11.70
2018,08,01,05,04,11.70
2018,08,01,05,05,11.60
2018,08,01,05,06,11.60
2018,08,01,05,07,11.60
2018,08,01,05,08,11.60
2018,08,01,05,09,11.60
2018,08,01,05,10,11.60
2018,08,01,05,11,11.60
2018,08,01,05,12,11.60
2018,08,01,05,13,11.50
2018,08,01,05,14,11.50
2018,08,01,05,15,11.50
2018,08,01,05,16,11.50
2018,08,01,05,17,11.50
2018,08,01,05,18,11.50
2018,08,01,05,19,11.40
2018,08,01,05,20,11.40
2018,08,01,05,21,11.40
2018,08,01,05,22,11.40
2018,08,01,05,23,11.40
2018,08,01,05,24,11.40
2018,08,01,05,25,11.40
2018,08,01,05,26,11.40
2018,08,01,05,27,11.40
2018,08,01,05,28,11.40
2018,08,01,05,29,11.40
2018,08,01,05,30,11.40
2018,08,01,05,31,11.40
2018,08,01,05,32,11.40
2018,08,01,05,33,11.40
2018,08,01,05,34,11.30
2018,08,01,05,35,11.30
2018,08,01,05,36,11.30
2018,08,01,05,37,11.30
2018,08,01,05,38,11.30
2018,08,01,05,39,11.30
2018,08,01,05,40,11.30
2018,08,01,05,41,11.30
2018,08,01,05,42,11.30
2018,08,01,05,43,11.30
2018,08,01,05,44,11.30
2018,08,01,05,45,11.30
2018,08,01,05,46,11.30
2018,08,01,05,47,11.20
2018,08,01,05,48,11.20
2018,08,01,05,49,11.20
2018,08,01,05,50,11.20
2018,08,01,05,51,11.20
2018,08,01,05,52,11.20
2018,08,01,05,53,11.20
2018,08,01,05,54,11.20
2018,08,01,05,55,11.20
2018,08,01,05,56,11.20
2018,08,01,05,57,11.20
2018,08,01,05,58,11.20
2018,08,01,05,59,11.20
2018,08,01,06,00,11.20
2018,08,01,06,01,11.20
2018,08,01,06,02,11.20
2018,08,01,06,03,11.20
2018,08,01,06,04,11.10
2018,08,01,06,05,11.10
2018,08,01,06,06,11.10
2018,08,01,06,07,11.10
2018,08,01,06,08,11.10
2018,08,01,06,09,11.10
2018,08,01,06,10,11.10
2018,08,01,06,11,11.10
2018,08,01,06,12,11.10
2018,08,01,06,13,11.10
2018,08,01,06,14,11.10
2018,08,01,06,15,11.10
2018,08,01,06,16,11.10
2018,08,01,06,17,11.00
2018,08,01,06,18,11.00
2018,08,01,06,19,11.00
2018,08,01,06,20,11.10
2018,08,01,06,21,11.10
2018,08,01,06,22,11.10
2018,08,01,06,23,11.10
2018,08,01,06,24,11.10
2018,08,01,06,25,11.10
2018,08,01,06,26,11.10
2018,08,01,06,27,11.10
2018,08,01,06,28,11.10
2018,08,01,06,29,11.20
2018,08,01,06,30,11.20
2018,08,01,06,31,11.20
2018,08,01,06,32,11.20
2018,08,01,06,33,11.20
2018,08,01,06,34,11.20
2018,08,01,06,35,11.20
2018,08,01,06,36,11.20
2018,08,01,06,37,11.20
2018,08,01,06,38,11.20
2018,08,01,06,39,11.20
2018,08,01,06,40,11.20
2018,08,01,06,41,11.20
2018,08,01,06,42,11.20
2018,08,01,06,43,11.30
2018,08,01,06,44,11.30
2018,08,01,06,45,11.30
2018,08,01,06,46,11.30
2018,08,01,06,47,11.30
2018,08,01,06,48,11.30
2018,08,01,06,49,11.30
2018,08,01,06,50,11.30
2018,08,01,06,51,11.30
2018,08,01,06,52,11.30
2018,08,01,06,53,11.30
2018,08,01,06,54,11.30
2018,08,01,06,55,11.30
2018,08,01,06,56,11.30
2018,08,01,06,57,11.30
2018,08,01,06,58,11.30
2018,08,01,06,59,11.40
2018,08,01,07,00,11.40
2018,08,01,07,01,11.40
2018,08,01,07,02,11.40
2018,08,01,07,03,11.40
2018,08,01,07,04,11.50
2018,08,01,07,05,11.50
2018,08,01,07,06,11.50
2018,08,01,07,07,11.60
2018,08,01,07,08,11.60
2018,08,01,07,09,11.60
2018,08,01,07,10,11.60
2018,08,01,07,11,11.60
2018,08,01,07,12,11.70
2018,08,01,07,13,11.70
2018,08,01,07,14,11.70
2018,08,01,07,15,11.80
2018,08,01,07,16,11.80
2018,08,01,07,17,11.80
2018,08,01,07,18,11.80
2018,08,01,07,19,11.90
2018,08,01,07,20,11.90
2018,08,01,07,21,12.00
2018,08,01,07,22,12.00
2018,08,01,07,23,12.10
2018,08,01,07,24,12.10
2018,08,01,07,25,12.20
2018,08,01,07,26,12.20
2018,08,01,07,27,12.20
2018,08,01,07,28,12.30
2018,08,01,07,29,12.30
2018,08,01,07,30,12.30
2018,08,01,07,31,12.40
2018,08,01,07,32,12.40
2018,08,01,07,33,12.50
2018,08,01,07,34,12.50
2018,08,01,07,35,12.60
2018,08,01,07,36,12.60
2018,08,01,07,37,12.70
2018,08,01,07,38,12.70
2018,08,01,07,39,12.80
2018,08,01,07,40,12.80
2018,08,01,07,41,12.90
2018,08,01,07,42,12.90
2018,08,01,07,43,13.00
2018,08,01,07,44,13.00
2018,08,01,07,45,13.10
2018,08,01,07,46,13.20
2018,08,01,07,47,13.20
2018,08,01,07,48,13.30
2018,08,01,07,49,13.40
2018,08,01,07,50,13.50
2018,08,01,07,51,13.60
2018,08,01,07,52,13.70
2018,08,01,07,53,13.80
2018,08,01,07,54,14.00
2018,08,01,07,55,14.10
2018,08,01,07,56,14.20
2018,08,01,07,57,14.30
2018,08,01,07,58,14.40
2018,08,01,07,59,14.50
2018,08,01,08,00,14.60
2018,08,01,08,01,14.70
2018,08,01,08,02,14.80
2018,08,01,08,03,15.00
2018,08,01,08,04,15.10
2018,08,01,08,05,15.20
2018,08,01,08,06,15.30
2018,08,01,08,07,15.40
2018,08,01,08,08,15.40
2018,08,01,08,09,15.60
2018,08,01,08,10,15.70
2018,08,01,08,11,15.80
2018,08,01,08,12,15.80
2018,08,01,08,13,15.90
2018,08,01,08,14,16.00
2018,08,01,08,15,16.10
2018,08,01,08,16,16.10
2018,08,01,08,17,16.20
2018,08,01,08,18,16.30
2018,08,01,08,19,16.40
2018,08,01,08,20,16.50
2018,08,01,08,21,16.50
2018,08,01,08,22,16.60
2018,08,01,08,23,16.60
2018,08,01,08,24,16.80
2018,08,01,08,25,16.80
2018,08,01,08,26,16.90
2018,08,01,08,27,17.00
2018,08,01,08,28,17.10
2018,08,01,08,29,17.10
2018,08,01,08,30,17.10
2018,08,01,08,31,17.10
2018,08,01,08,32,17.10
2018,08,01,08,33,17.00
2018,08,01,08,34,17.10
2018,08,01,08,35,17.10
2018,08,01,08,36,17.10
2018,08,01,08,37,17.20
2018,08,01,08,38,17.20
2018,08,01,08,39,17.30
2018,08,01,08,40,17.30
2018,08,01,08,41,17.40
2018,08,01,08,42,17.40
2018,08,01,08,43,17.50
2018,08,01,08,44,17.50
2018,08,01,08,45,17.60
2018,08,01,08,46,17.60
2018,08,01,08,47,17.70
2018,08,01,08,48,17.80
2018,08,01,08,49,17.80
2018,08,01,08,50,17.80
2018,08,01,08,51,17.90
2018,08,01,08,52,17.90
2018,08,01,08,53,17.90
2018,08,01,08,54,17.90
2018,08,01,08,55,17.90
2018,08,01,08,56,17.90
2018,08,01,08,57,17.90
2018,08,01,08,58,18.00
2018,08,01,08,59,18.10
2018,08,01,09,00,18.10
2018,08,01,09,01,18.10
2018,08,01,09,02,18.10
2018,08,01,09,03,18.20
2018,08,01,09,04,18.20
2018,08,01,09,05,18.20
2018,08,01,09,06,18.20
2018,08,01,09,07,18.20
2018,08,01,09,08,18.20
2018,08,01,09,09,18.30
2018,08,01,09,10,18.30
2018,08,01,09,11,18.40
2018,08,01,09,12,18.50
2018,08,01,09,13,18.60
2018,08,01,09,14,18.70
2018,08,01,09,15,18.80
2018,08,01,09,16,18.80
2018,08,01,09,17,18.90
2018,08,01,09,18,19.00
2018,08,01,09,19,19.00
2018,08,01,09,20,19.10
2018,08,01,09,21,19.10
2018,08,01,09,22,19.10
2018,08,01,09,23,19.20
2018,08,01,09,24,19.30
2018,08,01,09,25,19.30
2018,08,01,09,26,19.40
2018,08,01,09,27,19.50
2018,08,01,09,28,19.60
2018,08,01,09,29,19.60
2018,08,01,09,30,19.70
2018,08,01,09,31,19.70
2018,08,01,09,32,19.80
2018,08,01,09,33,19.80
2018,08,01,09,34,19.90
2018,08,01,09,35,19.90
2018,08,01,09,36,19.80
2018,08,01,09,37,19.80
2018,08,01,09,38,19.80
2018,08,01,09,39,19.80
2018,08,01,09,40,19.80
2018,08,01,09,41,19.70
2018,08,01,09,42,19.70
2018,08,01,09,43,19.70
2018,08,01,09,44,19.70
2018,08,01,09,45,19.70
2018,08,01,09,46,19.70
2018,08,01,09,47,19.70
2018,08,01,09,48,19.70
2018,08,01,09,49,19.70
2018,08,01,09,50,19.70
2018,08,01,09,51,19.70
2018,08,01,09,52,19.70
2018,08,01,09,53,19.60
2018,08,01,09,54,19.50
2018,08,01,09,55,19.50
2018,08,01,09,56,19.40
2018,08,01,09,57,19.50
2018,08,01,09,58,19.60
2018,08,01,09,59,19.60
2018,08,01,10,00,19.70
2018,08,01,10,01,19.70
2018,08,01,10,02,19.80
2018,08,01,10,03,19.80
2018,08,01,10,04,19.80
2018,08,01,10,05,19.90
2018,08,01,10,06,20.00
2018,08,01,10,07,20.10
2018,08,01,10,08,20.20
2018,08,01,10,09,20.20
2018,08,01,10,10,20.20
2018,08,01,10,11,20.20
2018,08,01,10,12,20.30
2018,08,01,10,13,20.30
2018,08,01,10,14,20.30
2018,08,01,10,15,20.30
2018,08,01,10,16,20.20
2018,08,01,10,17,20.10
2018,08,01,10,18,20.10
2018,08,01,10,19,20.20
2018,08,01,10,20,20.30
2018,08,01,10,21,20.40
2018,08,01,10,22,20.40
2018,08,01,10,23,20.50
2018,08,01,10,24,20.60
2018,08,01,10,25,20.60
2018,08,01,10,26,20.60
2018,08,01,10,27,20.70
2018,08,01,10,28,20.70
2018,08,01,10,29,20.70
2018,08,01,10,30,20.70
2018,08,01,10,31,20.80
2018,08,01,10,32,20.80
2018,08,01,10,33,20.90
2018,08,01,10,34,20.90
2018,08,01,10,35,20.90
2018,08,01,10,36,20.90
2018,08,01,10,37,20.90
2018,08,01,10,38,20.90
2018,08,01,10,39,20.90
2018,08,01,10,40,21.00
2018,08,01,10,41,21.10
2018,08,01,10,42,21.10
2018,08,01,10,43,21.10
2018,08,01,10,44,21.10
2018,08,01,10,45,21.10
2018,08,01,10,46,21.10
2018,08,01,10,47,21.10
2018,08,01,10,48,21.10
2018,08,01,10,49,21.10
2018,08,01,10,50,21.10
2018,08,01,10,51,21.00
2018,08,01,10,52,20.90
2018,08,01,10,53,20.90
2018,08,01,10,54,20.90
2018,08,01,10,55,20.90
2018,08,01,10,56,21.00
2018,08,01,10,57,21.10
2018,08,01,10,58,21.10
2018,08,01,10,59,21.20
2018,08,01,11,00,21.20
2018,08,01,11,01,21.10
2018,08,01,11,02,21.10
2018,08,01,11,03,21.20
2018,08,01,11,04,21.20
2018,08,01,11,05,21.30
2018,08,01,11,06,21.30
2018,08,01,11,07,21.20
2018,08,01,11,08,21.20
2018,08,01,11,09,21.30
2018,08,01,11,10,21.20
2018,08,01,11,11,21.10
2018,08,01,11,12,21.00
2018,08,01,11,13,20.90
2018,08,01,11,14,20.90
2018,08,01,11,15,20.90
2018,08,01,11,16,20.90
2018,08,01,11,17,21.00
2018,08,01,11,18,21.00
2018,08,01,11,19,21.20
2018,08,01,11,20,21.30
2018,08,01,11,21,21.40
2018,08,01,11,22,21.40
2018,08,01,11,23,21.30
2018,08,01,11,24,21.20
2018,08,01,11,25,21.00
2018,08,01,11,26,20.90
2018,08,01,11,27,20.90
2018,08,01,11,28,20.80
2018,08,01,11,29,20.80
2018,08,01,11,30,20.80
2018,08,01,11,31,20.70
2018,08,01,11,32,20.70
2018,08,01,11,33,20.70
2018,08,01,11,34,20.70
2018,08,01,11,35,20.70
2018,08,01,11,36,20.60
2018,08,01,11,37,20.60
2018,08,01,11,38,20.60
2018,08,01,11,39,20.60
2018,08,01,11,40,20.60
2018,08,01,11,41,20.60
2018,08,01,11,42,20.60
2018,08,01,11,43,20.60
2018,08,01,11,44,20.80
2018,08,01,11,45,20.90
2018,08,01,11,46,21.00
2018,08,01,11,47,21.00
2018,08,01,11,48,21.00
2018,08,01,11,49,21.10
2018,08,01,11,50,21.10
2018,08,01,11,51,21.10
2018,08,01,11,52,21.10
2018,08,01,11,53,21.10
2018,08,01,11,54,21.00
2018,08,01,11,55,21.00
2018,08,01,11,56,21.00
2018,08,01,11,57,21.00
2018,08,01,11,58,21.00
2018,08,01,11,59,21.00
2018,08,01,12,00,21.10
2018,08,01,12,01,21.10
2018,08,01,12,02,21.10
2018,08,01,12,03,21.20
2018,08,01,12,04,21.20
2018,08,01,12,05,21.40
2018,08,01,12,06,21.40
2018,08,01,12,07,21.50
2018,08,01,12,08,21.60
2018,08,01,12,09,21.60
2018,08,01,12,10,21.70
2018,08,01,12,11,21.70
2018,08,01,12,12,21.70
2018,08,01,12,13,21.60
2018,08,01,12,14,21.60
2018,08,01,12,15,21.60
2018,08,01,12,16,21.60
2018,08,01,12,17,21.70
2018,08,01,12,18,21.80
2018,08,01,12,19,21.90
2018,08,01,12,20,21.90
2018,08,01,12,21,21.90
2018,08,01,12,22,21.90
2018,08,01,12,23,21.90
2018,08,01,12,24,21.90
2018,08,01,12,25,21.90
2018,08,01,12,26,21.80
2018,08,01,12,27,21.80
2018,08,01,12,28,21.70
2018,08,01,12,29,21.60
2018,08,01,12,30,21.50
2018,08,01,12,31,21.40
2018,08,01,12,32,21.40
2018,08,01,12,33,21.40
2018,08,01,12,34,21.40
2018,08,01,12,35,21.30
2018,08,01,12,36,21.30
2018,08,01,12,37,21.30
2018,08,01,12,38,21.30
2018,08,01,12,39,21.40
2018,08,01,12,40,21.50
2018,08,01,12,41,21.60
2018,08,01,12,42,21.70
2018,08,01,12,43,21.80
2018,08,01,12,44,21.80
2018,08,01,12,45,21.80
2018,08,01,12,46,21.70
2018,08,01,12,47,21.70
2018,08,01,12,48,21.70
2018,08,01,12,49,21.70
2018,08,01,12,50,21.70
2018,08,01,12,51,21.80
2018,08,01,12,52,21.80
2018,08,01,12,53,21.80
2018,08,01,12,54,21.80
2018,08,01,12,55,21.80
2018,08,01,12,56,21.80
2018,08,01,12,57,21.90
2018,08,01,12,58,21.90
2018,08,01,12,59,22.00
2018,08,01,13,00,22.00
2018,08,01,13,01,22.10
2018,08,01,13,02,22.10
2018,08,01,13,03,22.20
2018,08,01,13,04,22.20
2018,08,01,13,05,22.30
2018,08,01,13,06,22.40
2018,08,01,13,07,22.50
2018,08,01,13,08,22.60
2018,08,01,13,09,22.60
2018,08,01,13,10,22.50
2018,08,01,13,11,22.40
2018,08,01,13,12,22.20
2018,08,01,13,13,22.20
2018,08,01,13,14,22.20
2018,08,01,13,15,22.10
2018,08,01,13,16,22.10
2018,08,01,13,17,22.00
2018,08,01,13,18,22.00
2018,08,01,13,19,21.90
2018,08,01,13,20,21.90
2018,08,01,13,21,21.90
2018,08,01,13,22,21.80
2018,08,01,13,23,21.80
2018,08,01,13,24,21.80
2018,08,01,13,25,21.90
2018,08,01,13,26,22.00
2018,08,01,13,27,22.10
2018,08,01,13,28,22.20
2018,08,01,13,29,22.20
2018,08,01,13,30,22.30
2018,08,01,13,31,22.20
2018,08,01,13,32,22.20
2018,08,01,13,33,22.10
2018,08,01,13,34,22.00
2018,08,01,13,35,22.00
2018,08,01,13,36,22.00
2018,08,01,13,37,22.10
2018,08,01,13,38,22.10
2018,08,01,13,39,22.10
2018,08,01,13,40,22.10
2018,08,01,13,41,22.10
2018,08,01,13,42,22.20
2018,08,01,13,43,22.20
2018,08,01,13,44,22.20
2018,08,01,13,45,22.20
2018,08,01,13,46,22.30
2018,08,01,13,47,22.30
2018,08,01,13,48,22.30
2018,08,01,13,49,22.40
2018,08,01,13,50,22.40
2018,08,01,13,51,22.40
2018,08,01,13,52,22.30
2018,08,01,13,53,22.10
2018,08,01,13,54,22.00
2018,08,01,13,55,22.00
2018,08,01,13,56,22.10
2018,08,01,13,57,22.10
2018,08,01,13,58,22.20
2018,08,01,13,59,22.30
2018,08,01,14,00,22.40
2018,08,01,14,01,22.50
2018,08,01,14,02,22.60
2018,08,01,14,03,22.60
2018,08,01,14,04,22.60
2018,08,01,14,05,22.60
2018,08,01,14,06,22.60
2018,08,01,14,07,22.60
2018,08,01,14,08,22.70
2018,08,01,14,09,22.70
2018,08,01,14,10,22.70
2018,08,01,14,11,22.70
2018,08,01,14,12,22.80
2018,08,01,14,13,22.90
2018,08,01,14,14,22.90
2018,08,01,14,15,23.00
2018,08,01,14,16,23.10
2018,08,01,14,17,23.30
2018,08,01,14,18,23.30
2018,08,01,14,19,23.30
2018,08,01,14,20,23.30
2018,08,01,14,21,23.20
2018,08,01,14,22,23.10
2018,08,01,14,23,23.00
2018,08,01,14,24,23.00
2018,08,01,14,25,22.90
2018,08,01,14,26,23.00
2018,08,01,14,27,23.00
2018,08,01,14,28,23.10
2018,08,01,14,29,23.20
2018,08,01,14,30,23.10
2018,08,01,14,31,23.10
2018,08,01,14,32,23.00
2018,08,01,14,33,22.90
2018,08,01,14,34,22.90
2018,08,01,14,35,22.90
2018,08,01,14,36,22.90
2018,08,01,14,37,22.80
2018,08,01,14,38,22.80
2018,08,01,14,39,22.80
2018,08,01,14,40,22.90
2018,08,01,14,41,22.90
2018,08,01,14,42,22.90
2018,08,01,14,43,22.90
2018,08,01,14,44,22.90
2018,08,01,14,45,22.90
2018,08,01,14,46,23.00
2018,08,01,14,47,23.00
2018,08,01,14,48,23.10
2018,08,01,14,49,23.10
2018,08,01,14,50,23.10
2018,08,01,14,51,23.20
2018,08,01,14,52,23.20
2018,08,01,14,53,23.30
2018,08,01,14,54,23.30
2018,08,01,14,55,23.30
2018,08,01,14,56,23.30
2018,08,01,14,57,23.40
2018,08,01,14,58,23.50
2018,08,01,14,59,23.60
2018,08,01,15,00,23.70
2018,08,01,15,01,23.80
2018,08,01,15,02,23.70
2018,08,01,15,03,23.70
2018,08,01,15,04,23.60
2018,08,01,15,05,23.60
2018,08,01,15,06,23.60
2018,08,01,15,07,23.60
2018,08,01,15,08,23.50
2018,08,01,15,09,23.40
2018,08,01,15,10,23.40
2018,08,01,15,11,23.30
2018,08,01,15,12,23.30
2018,08,01,15,13,23.20
2018,08,01,15,14,23.20
2018,08,01,15,15,23.20
2018,08,01,15,16,23.30
2018,08,01,15,17,23.30
2018,08,01,15,18,23.40
2018,08,01,15,19,23.50
2018,08,01,15,20,23.50
2018,08,01,15,21,23.60
2018,08,01,15,22,23.50
2018,08,01,15,23,23.40
2018,08,01,15,24,23.30
2018,08,01,15,25,23.20
2018,08,01,15,26,23.20
2018,08,01,15,27,23.20
2018,08,01,15,28,23.30
2018,08,01,15,29,23.30
2018,08,01,15,30,23.30
2018,08,01,15,31,23.30
2018,08,01,15,32,23.30
2018,08,01,15,33,23.30
2018,08,01,15,34,23.30
2018,08,01,15,35,23.30
2018,08,01,15,36,23.20
2018,08,01,15,37,23.10
2018,08,01,15,38,23.10
2018,08,01,15,39,23.10
2018,08,01,15,40,23.20
2018,08,01,15,41,23.20
2018,08,01,15,42,23.30
2018,08,01,15,43,23.40
2018,08,01,15,44,23.50
2018,08,01,15,45,23.60
2018,08,01,15,46,23.60
2018,08,01,15,47,23.70
2018,08,01,15,48,23.70
2018,08,01,15,49,23.70
2018,08,01,15,50,23.70
2018,08,01,15,51,23.60
2018,08,01,15,52,23.60
2018,08,01,15,53,23.60
2018,08,01,15,54,23.50
2018,08,01,15,55,23.50
2018,08,01,15,56,23.50
2018,08,01,15,57,23.60
2018,08,01,15,58,23.60
2018,08,01,15,59,23.60
2018,08,01,16,00,23.60
2018,08,01,16,01,23.60
2018,08,01,16,02,23.60
2018,08,01,16,03,23.60
2018,08,01,16,04,23.60
2018,08,01,16,05,23.60
2018,08,01,16,06,23.70
2018,08,01,16,07,23.80
2018,08,01,16,08,23.90
2018,08,01,16,09,23.90
2018,08,01,16,10,24.00
2018,08,01,16,11,23.90
2018,08,01,16,12,23.90
2018,08,01,16,13,23.80
2018,08,01,16,14,23.80
2018,08,01,16,15,23.70
2018,08,01,16,16,23.70
2018,08,01,16,17,23.60
2018,08,01,16,18,23.60
2018,08,01,16,19,23.50
2018,08,01,16,20,23.50
2018,08,01,16,21,23.50
2018,08,01,16,22,23.50
2018,08,01,16,23,23.60
2018,08,01,16,24,23.60
2018,08,01,16,25,23.60
2018,08,01,16,26,23.60
2018,08,01,16,27,23.70
2018,08,01,16,28,23.70
2018,08,01,16,29,23.70
2018,08,01,16,30,23.80
2018,08,01,16,31,23.80
2018,08,01,16,32,23.70
2018,08,01,16,33,23.70
2018,08,01,16,34,23.70
2018,08,01,16,35,23.80
2018,08,01,16,36,23.80
2018,08,01,16,37,23.80
2018,08,01,16,38,23.80
2018,08,01,16,39,23.80
2018,08,01,16,40,23.90
2018,08,01,16,41,23.90
2018,08,01,16,42,23.90
2018,08,01,16,43,23.80
2018,08,01,16,44,23.80
2018,08,01,16,45,23.80
2018,08,01,16,46,23.80
2018,08,01,16,47,23.70
2018,08,01,16,48,23.70
2018,08,01,16,49,23.70
2018,08,01,16,50,23.60
2018,08,01,16,51,23.60
2018,08,01,16,52,23.60
2018,08,01,16,53,23.70
2018,08,01,16,54,23.70
2018,08,01,16,55,23.70
2018,08,01,16,56,23.70
2018,08,01,16,57,23.70
2018,08,01,16,58,23.70
2018,08,01,16,59,23.70
2018,08,01,17,00,23.60
2018,08,01,17,01,23.60
2018,08,01,17,02,23.60
2018,08,01,17,03,23.60
2018,08,01,17,04,23.70
2018,08,01,17,05,23.70
2018,08,01,17,06,23.70
2018,08,01,17,07,23.70
2018,08,01,17,08,23.80
2018,08,01,17,09,23.70
2018,08,01,17,10,23.70
2018,08,01,17,11,23.80
2018,08,01,17,12,23.80
2018,08,01,17,13,23.80
2018,08,01,17,14,23.80
2018,08,01,17,15,23.90
2018,08,01,17,16,23.90
2018,08,01,17,17,23.90
2018,08,01,17,18,23.90
2018,08,01,17,19,24.00